Location: Unspecified
(49.9820°N, 20.4363°E)
Time: 22:23:17
(UTC+02:00)

ISS - Pass Details

Date: 20 July 2018
Orbit: 402 x 408 km, 51.6° (Epoch: 20 July)

Event Time Altitude Azimuth Distance (km) Brightness Sun altitude
Rises 02:15:12 0° 285° (WNW) 2,331 0.0 -16.5°
Reaches altitude 10° 02:17:17 10° 286° (WNW) 1,470 -1.1 -16.4°
Maximum altitude 02:20:35 84° 14° (NNE) 415 -3.8 -16.2°
Drops below altitude 10° 02:23:54 10° 104° (ESE) 1,469 -0.9 -16.0°
Sets 02:25:58 0° 105° (ESE) 2,329 0.2 -15.8°
